This is the latest recevied weather packets stored in our database for station/object OK2ILA-1. If no packets are shown the sender has not sent any weather packets the latest 10 day(s).
| Time | Temp. | Humidity | Pressure | Rain* | Wind** | Luminosity | Snow |
|---|---|---|---|---|---|---|---|
| 1788516152 | 23.33° C | 100% | 1017.7 hPa | 0 mm | - | - | - |
| 1788515431 | 23.89° C | 100% | 1018 hPa | 0 mm | - | - | - |
| 1788514710 | 24.44° C | 100% | 1018.1 hPa | 0 mm | - | - | - |
| 1788513989 | 23.89° C | 100% | 1018.2 hPa | 0 mm | - | - | - |
| 1788513269 | 23.89° C | 100% | 1018.2 hPa | 0 mm | - | - | - |
| 1788511107 | 23.33° C | 100% | 1018.6 hPa | 0 mm | - | - | - |
| 1788510386 | 22.78° C | 100% | 1018.4 hPa | 0 mm | - | - | - |
| 1788509665 | 22.78° C | 100% | 1018.8 hPa | 0 mm | - | - | - |
| 1788508945 | 22.22° C | 100% | 1018.7 hPa | 0 mm | - | - | - |
| 1788507503 | 21.11° C | 100% | 1019 hPa | 0 mm | - | - | - |
| 1788506783 | 20.56° C | 100% | 1018.8 hPa | 0 mm | - | - | - |
| 1788506062 | 20.56° C | 100% | 1018.8 hPa | 0 mm | - | - | - |
| 1788505341 | 20.56° C | 100% | 1018.9 hPa | 0 mm | - | - | - |
| 1788504621 | 20° C | 100% | 1019 hPa | 0 mm | - | - | - |
| 1788503900 | 20° C | 100% | 1019.1 hPa | 0 mm | - | - | - |
| 1788503179 | 18.89° C | 100% | 1019.1 hPa | 0 mm | - | - | - |
| 1788502459 | 18.89° C | 100% | 1019.1 hPa | 0 mm | - | - | - |
| 1788501738 | 18.89° C | 100% | 1019 hPa | 0 mm | - | - | - |
| 1788500296 | 18.33° C | 100% | 1018.9 hPa | 0 mm | - | - | - |
| 1788499576 | 18.33° C | 100% | 1018.8 hPa | 0 mm | - | - | - |
| 1788498855 | 18.33° C | 100% | 1018.8 hPa | 0 mm | - | - | - |
| 1788498134 | 18.33° C | 100% | 1018.7 hPa | 0 mm | - | - | - |
| 1788497414 | 18.33° C | 100% | 1018.7 hPa | 0 mm | - | - | - |
| 1788496693 | 18.33° C | 100% | 1018.7 hPa | 0 mm | - | - | - |
| 1788495972 | 18.33° C | 100% | 1018.9 hPa | 0 mm | - | - | - |
* Rain latest hour (hover to see other rain measurements)
** Current wind speed in m/s (hover to see current wind gust speed)